Location: Brachstadt
(48.6975°N, 10.6755°E)
Time: 08:15:55
(UTC+00:00)

Cosmos 1707 - Pass Details

Date: 18 September 2020
Orbit: 515 x 530 km, 82.5° (Epoch: 27 October)

Event Time Altitude Azimuth Distance (km) Brightness Sun altitude
Rises 19:15:56 0° 342° (NNW) 2,654 7.0 -18.8°
Reaches altitude 10° 19:18:12 10° 333° (NNW) 1,759 6.1 -19.2°
Maximum altitude 19:21:42 34° 268° (W) 872 4.3 -19.7°
Drops below altitude 10° 19:25:10 10° 203° (SSW) 1,741 5.3 -20.2°
Enters shadow 19:26:07 - 198° (SSW) 2,107 5.7 -20.3°
